Location: Newark
(41.4073°N, 2.1486°E)
Time: 10:40:17
(UTC+00:00)

Envisat - Visible Passes

Search period start: 12 December 2019 00:00
Search period end: 22 December 2019 00:00
Orbit: 764 x 766 km, 98.1° (Epoch: 11 December)

Date Brightness Start Highest point End Pass type
(mag) Time Alt. Az. Time Alt. Az. Time Alt. Az.
12 Dec 6.4 05:12:14 10° ENE 05:13:16 11° E 05:14:19 10° E visible
12 Dec 3.4 18:02:21 10° S 18:07:23 66° WSW 18:12:28 10° NNW visible
13 Dec 4.4 06:11:16 10° NNE 06:16:06 43° E 06:20:54 10° S visible
13 Dec 3.0 17:25:43 10° SSE 17:30:40 57° ENE 17:35:39 10° N visible
13 Dec 5.8 19:06:48 10° SW 19:10:02 17° W 19:13:16 10° NW visible
14 Dec 5.8 05:35:26 10° NE 05:39:05 19° E 05:42:41 10° SE visible
14 Dec 3.9 16:49:57 10° ESE 16:54:08 27° ENE 16:58:19 10° N visible
14 Dec 4.5 18:28:18 10° SSW 18:32:58 37° W 18:37:40 10° NNW visible
15 Dec 3.3 06:36:33 10° NNE 06:41:39 76° ESE 06:46:43 10° S visible
15 Dec 3.0 17:51:02 10° SSE 17:56:06 83° WSW 18:01:13 10° NNW visible
16 Dec 4.9 06:00:09 10° NNE 06:04:46 34° E 06:09:20 10° SSE visible
16 Dec 3.3 17:14:38 10° SE 17:19:26 45° ENE 17:24:16 10° N visible
16 Dec 5.4 18:54:49 10° SW 18:58:39 21° W 19:02:29 10° NW visible
17 Dec 6.0 05:24:44 10° NE 05:27:41 15° E 05:30:36 10° SE visible
17 Dec 4.0 18:16:46 10° S 18:21:38 47° W 18:26:32 10° NNW visible
18 Dec 3.7 06:25:19 10° NNE 06:30:22 60° E 06:35:22 10° S visible
18 Dec 2.9 17:39:46 10° SSE 17:44:50 79° ENE 17:49:56 10° N visible
18 Dec 6.1 19:22:36 10° WSW 19:24:26 12° W 19:26:15 10° WNW visible
19 Dec 5.3 05:49:07 10° NE 05:53:25 27° E 05:57:40 10° SSE visible
19 Dec 3.5 17:03:37 10° SE 17:08:13 36° ENE 17:12:50 10° N visible
19 Dec 5.1 18:43:01 10° SSW 18:47:16 27° W 18:51:33 10° NW visible
20 Dec 6.2 05:14:26 10° ENE 05:16:15 12° E 05:18:05 10° ESE visible
20 Dec 3.6 18:05:19 10° S 18:10:19 60° W 18:15:22 10° NNW visible
21 Dec 4.2 06:14:08 10° NNE 06:19:03 47° E 06:23:55 10° S visible
21 Dec 3.0 17:28:35 10° SSE 17:33:34 62° ENE 17:38:35 10° N visible
21 Dec 5.9 19:10:05 10° SW 19:13:00 15° W 19:15:57 10° NW visible
